This is the latest recevied weather packets stored in our database for station/object W4TTU-1. If no packets are shown the sender has not sent any weather packets the latest 10 day(s).
| Time | Temp. | Humidity | Pressure | Rain* | Wind** | Luminosity | Snow |
|---|---|---|---|---|---|---|---|
| 1777771862 | 31.11° C | 21% | 844.6 hPa | 0 mm | - | - | - |
| 1777770961 | 32.22° C | 21% | 844.6 hPa | 0 mm | - | - | - |
| 1777770061 | 32.78° C | 21% | 844.5 hPa | 0 mm | - | - | - |
| 1777769160 | 33.33° C | 21% | 844.4 hPa | 0 mm | - | - | - |
| 1777768259 | 33.89° C | 21% | 844.3 hPa | 0 mm | - | - | - |
| 1777767359 | 34.44° C | 21% | 844.4 hPa | 0 mm | - | - | - |
| 1777766458 | 35° C | 21% | 844.5 hPa | 0 mm | - | - | - |
| 1777765558 | 36.11° C | 21% | 844.6 hPa | 0 mm | - | - | - |
| 1777764657 | 36.67° C | 21% | 844.6 hPa | 0 mm | - | - | - |
| 1777763757 | 37.22° C | 21% | 844.8 hPa | 0 mm | - | - | - |
| 1777762856 | 38.33° C | 21% | 845 hPa | 0 mm | - | - | - |
| 1777761956 | 38.89° C | 22% | 844.9 hPa | 0 mm | - | - | - |
| 1777761055 | 38.89° C | 22% | 845.1 hPa | 0 mm | - | - | - |
| 1777760155 | 38.89° C | 22% | 845.3 hPa | 0 mm | - | - | - |
| 1777759255 | 38.89° C | 23% | 845.5 hPa | 0 mm | - | - | - |
| 1777758356 | 38.89° C | 23% | 845.6 hPa | 0 mm | - | - | - |
| 1777757453 | 38.89° C | 22% | 845.9 hPa | 0 mm | - | - | - |
| 1777756553 | 38.89° C | 23% | 846 hPa | 0 mm | - | - | - |
| 1777755652 | 38.33° C | 24% | 846 hPa | 0 mm | - | - | - |
| 1777754754 | 37.78° C | 24% | 846.1 hPa | 0 mm | - | - | - |
| 1777753851 | 36.67° C | 25% | 846.3 hPa | 0 mm | - | - | - |
| 1777752951 | 35.56° C | 25% | 846.3 hPa | 0 mm | - | - | - |
| 1777752050 | 34.44° C | 25% | 846.6 hPa | 0 mm | - | - | - |
| 1777751152 | 33.33° C | 25% | 846.7 hPa | 0 mm | - | - | - |
| 1777750249 | 32.78° C | 26% | 846.8 hPa | 0 mm | - | - | - |
* Rain since midnight (hover to see other rain measurements)
** Current wind speed in m/s (hover to see current wind gust speed)